Tallahassee, FL

7:39 AM EDT on April 25, 2018 (GMT -0400)
Tallahassee Regional

Weather History for KTLH - June, 2014

Change the Weather History Date:

Sunday, June 1, 2014

  Actual Average Record
Temperature  
Mean Temperature 79 °F 78 °F  
Max Temperature 86 °F 90 °F 103 °F (2011)
Min Temperature 71 °F 67 °F 46 °F (1984)
Degree Days  
Heating Degree Days 0    
Month to date heating degree days 0  
Since 1 June heating degree days 0  
Since 1 July heating degree days 1360  
Cooling Degree Days 14    
Month to date cooling degree days 14  
Year to date cooling degree days 503  
Since 1 June cooling degree days 14  
Growing Degree Days 28 (Base 50)    
Moisture  
Dew Point 68 °F    
Average Humidity 73    
Maximum Humidity 90    
Minimum Humidity 55    
Precipitation  
Precipitation 0.01 in 0.21 in 3.16 in (1959)
Month to date precipitation 0.01 0.21  
Year to date precipitation 32.10 21.87  
Sea Level Pressure  
Sea Level Pressure 30.09 in    
Wind  
Wind Speed 10 mph (ENE)    
Max Wind Speed 28 mph    
Max Gust Speed 31 mph    
Visibility 10 miles    
Events Fog , Rain    
T = Trace of Precipitation, MM = Missing Value Source: NWS Daily Summary

Daily Weather History Graph

Daily Weather History Graph

Search for Another Location

Airport or City:

Astronomy

Jun. 01, 2014 Rise Set
Actual Time 6:35 AM EDT 8:34 PM EDT
Civil Twilight 6:08 AM EDT 9:02 PM EDT
Nautical Twilight 5:35 AM EDT 9:35 PM EDT
Astronomical Twilight 5:00 AM EDT 10:10 PM EDT
Moon 9:59 AM EDT (6/1) 11:39 PM EDT (6/1)
Length of Visible Light 14h 53m
Length of Day
13h 59m
Waxing Crescent, 14% of the Moon is Illuminated
Jun 1
Waxing Crescent
Jun 5
First Quarter
Jun 13
Full
Jun 19
Last Quarter
Jun 27
New

Hourly Weather History & Observations

Time (EDT) Temp. Heat Index Dew Point Humidity Pressure Visibility Wind Dir Wind Speed Gust Speed Precip Events Conditions
12:53 AM 71.1 °F - 66.9 °F 87% 30.04 in 10.0 mi Calm Calm - N/A   Clear
1:53 AM 72.0 °F - 68.0 °F 87% 30.06 in 10.0 mi Calm Calm - N/A   Clear
2:19 AM 73.4 °F - 68.0 °F 83% 30.05 in 10.0 mi ENE 3.5 mph - N/A   Mostly Cloudy
2:53 AM 73.0 °F - 68.0 °F 84% 30.06 in 10.0 mi ENE 3.5 mph - N/A   Mostly Cloudy
3:53 AM 73.0 °F - 68.0 °F 84% 30.05 in 10.0 mi ESE 3.5 mph - N/A   Clear
4:53 AM 72.0 °F - 68.0 °F 87% 30.04 in 10.0 mi ENE 3.5 mph - N/A   Clear
5:53 AM 72.0 °F - 68.0 °F 87% 30.05 in 10.0 mi Calm Calm - N/A   Scattered Clouds
6:53 AM 73.0 °F - 69.1 °F 87% 30.07 in 10.0 mi NNE 3.5 mph - N/A Fog Patches of Fog
7:39 AM 73.4 °F - 69.8 °F 88% 30.09 in 10.0 mi ENE 5.8 mph - N/A Fog Patches of Fog
7:53 AM 73.0 °F - 69.1 °F 87% 30.09 in 8.0 mi ENE 6.9 mph - N/A   Mostly Cloudy
8:09 AM 73.4 °F - 69.8 °F 88% 30.10 in 7.0 mi East 5.8 mph - N/A   Overcast
8:53 AM 75.0 °F - 70.0 °F 84% 30.11 in 9.0 mi East 5.8 mph - N/A   Overcast
9:11 AM 77.0 °F - 71.6 °F 83% 30.11 in 10.0 mi East 9.2 mph - N/A   Overcast
9:48 AM 78.8 °F - 69.8 °F 74% 30.11 in 10.0 mi East 10.4 mph - N/A   Mostly Cloudy
9:53 AM 78.8 °F - 69.8 °F 74% 30.11 in 10.0 mi East 12.7 mph - N/A   Mostly Cloudy
10:53 AM 79.0 °F - 69.1 °F 72% 30.12 in 10.0 mi East 12.7 mph - N/A   Overcast
11:26 AM 80.6 °F 83.9 °F 69.8 °F 70% 30.12 in 10.0 mi East 9.2 mph - N/A   Overcast
11:53 AM 81.0 °F 84.1 °F 69.1 °F 67% 30.12 in 10.0 mi ENE 8.1 mph - N/A   Overcast
12:53 PM 84.0 °F 87.0 °F 68.0 °F 58% 30.12 in 10.0 mi ENE 9.2 mph - N/A   Overcast
1:53 PM 84.9 °F 88.2 °F 68.0 °F 57% 30.10 in 10.0 mi ESE 8.1 mph - 0.00 in   Overcast
2:53 PM 86.0 °F 89.4 °F 68.0 °F 55% 30.08 in 10.0 mi ENE 11.5 mph - 0.00 in   Overcast
3:53 PM 80.1 °F 83.2 °F 70.0 °F 71% 30.08 in 10.0 mi NE 6.9 mph - 0.01 in   Overcast
4:53 PM 82.9 °F 87.0 °F 70.0 °F 65% 30.06 in 10.0 mi ENE 10.4 mph 18.4 mph N/A   Mostly Cloudy
5:33 PM 82.4 °F 86.3 °F 69.8 °F 66% 30.07 in 10.0 mi East 19.6 mph 27.6 mph N/A   Mostly Cloudy
5:46 PM 82.4 °F 85.4 °F 68.0 °F 62% 30.07 in 10.0 mi East 16.1 mph 26.5 mph N/A   Overcast
5:53 PM 82.0 °F 85.5 °F 69.1 °F 65% 30.07 in 10.0 mi East 12.7 mph - N/A   Overcast
6:53 PM 78.1 °F - 69.1 °F 74% 30.08 in 7.0 mi East 12.7 mph - 0.00 in   Overcast
7:25 PM 77.0 °F - 69.8 °F 78% 30.08 in 10.0 mi East 13.8 mph 24.2 mph 0.00 in Rain Light Rain
7:53 PM 77.0 °F - 68.0 °F 74% 30.09 in 10.0 mi East 11.5 mph 23.0 mph 0.00 in   Mostly Cloudy
8:53 PM 75.9 °F - 66.0 °F 71% 30.11 in 10.0 mi East 17.3 mph 24.2 mph N/A   Overcast
9:53 PM 75.0 °F - 64.0 °F 69% 30.12 in 10.0 mi East 17.3 mph 29.9 mph 0.00 in Rain Light Rain
10:53 PM 73.4 °F - 64.4 °F 73% 30.15 in 10.0 mi East 15.0 mph - N/A   Overcast
11:22 PM 73.4 °F - 64.4 °F 73% 30.14 in 10.0 mi East 15.0 mph - N/A   Overcast
11:53 PM 73.9 °F - 64.0 °F 71% 30.14 in 10.0 mi East 12.7 mph - N/A   Overcast